Simultaneous Nadir Overpasses (SNOs) Predictions

Prediction of SNOs between FY3D and TERRA Satellite Orbit:

Table of predicted SNOs for the next 14.0 days since TLE Epoch: 11/4/2023
Index Date (FY3D) Time (FY3D) Lat,Lon (FY3D) SZA (FY3D ) Date (TERRA) Time (TERRA) Lat,Lon (TERRA) SZA (TERRA ) Distance(km) Time Diff (sec)
1 11/05/2023 21:26:56 -74.54, 37.86 89.72 11/05/2023 21:28:08 -74.45, 38.28 89.79 16.03 72
2 11/05/2023 22:17:39 74.37,-154.38 90.14 11/05/2023 22:17:30 74.36,-154.27 90.13 3.66 9
3 11/05/2023 23:08:12 -73.80, 14.39 90.40 11/05/2023 23:07:04 -73.82, 12.17 90.43 69.07 68
4 11/08/2023 09:30:52 74.40, 37.28 90.90 11/08/2023 09:31:43 74.38, 37.20 90.88 3.48 51
5 11/08/2023 10:21:36 -74.37,-155.31 89.13 11/08/2023 10:21:07 -74.36,-155.21 89.14 3.26 29
6 11/10/2023 21:34:49 -74.41, 36.32 88.39 11/10/2023 21:35:19 -74.39, 36.30 88.40 1.57 30
7 11/10/2023 22:25:34 74.33,-156.17 91.55 11/10/2023 22:24:40 74.35,-156.13 91.57 2.53 54
8 11/13/2023 08:48:14 -75.03,-133.68 87.12 11/13/2023 08:49:20 -74.96,-130.90 87.14 80.41 66
9 11/13/2023 09:38:47 74.38, 35.44 92.27 11/13/2023 09:38:51 74.41, 35.42 92.30 3.16 4
10 11/13/2023 10:29:29 -74.25,-156.90 87.85 11/13/2023 10:28:17 -74.28,-157.23 87.83 10.35 72
11 11/15/2023 20:52:00 74.49,-133.10 93.01 11/15/2023 20:53:00 74.48,-132.99 93.01 3.54 60
12 11/15/2023 21:42:43 -74.41, 34.43 87.06 11/15/2023 21:42:25 -74.40, 34.48 87.07 1.66 18



Historial Predications of SNOs between FY3D and TERRA
